{"data":{"norad_id":57751,"epoch":"2026-09-20T22:00:03.000096Z","epoch_age_seconds":95108,"freshness":"FRESH","line1":"1 57751U 23131V   26263.91670139 -.00001381  00000+0 -40662-4 0  9996","line2":"2 57751  42.9994 128.6223 0001298 264.0473  81.0676 15.27577892  5729","mean_motion":15.27577892,"eccentricity":0.0001298,"inclination_deg":42.9994,"raan_deg":128.6223,"arg_perigee_deg":264.0473,"mean_anomaly_deg":81.0676,"bstar":-4.0662e-5,"rev_number":572,"period_min":94.266878798217,"perigee_km":482.16482538268,"apogee_km":483.94599093184,"semimajor_km":6861.1924081573,"source":"CELESTRAK","updated_at":"2026-09-21T09:00:33.682496Z"}}